| time (UTC) | temp C | wind direction | speed KPH | gust KPH | rain 1hr cm | rain 24hr cm | rain mn cm | humidity % | barometer mb |
| 20260505040039 | 13 | 173 | 6.4 | 17.7 | 0.00 | 0.00 | 0.00 | 82 | 1010.6 |
| 20260505035527 | 14 | 150 | 9.7 | 17.7 | 0.00 | 0.00 | 0.00 | 81 | 1010.6 |
| 20260505035025 | 14 | 195 | 8.0 | 16.1 | 0.00 | 0.00 | 0.00 | 81 | 1010.6 |
| 20260505034537 | 14 | 190 | 4.8 | 11.3 | 0.00 | 0.00 | 0.00 | 81 | 1010.5 |
| 20260505034026 | 14 | 120 | 3.2 | 12.9 | 0.00 | 0.00 | 0.00 | 80 | 1010.5 |
| 20260505033529 | 15 | 130 | 4.8 | 20.9 | 0.00 | 0.00 | 0.00 | 79 | 1010.4 |
| 20260505033053 | 15 | 194 | 8.0 | 20.9 | 0.00 | 0.00 | 0.00 | 79 | 1010.3 |
| 20260505032525 | 15 | 127 | 8.0 | 17.7 | 0.00 | 0.00 | 0.00 | 78 | 1010.2 |
| 20260505032028 | 15 | 115 | 6.4 | 14.5 | 0.00 | 0.00 | 0.00 | 78 | 1010.2 |
| 20260505031541 | 15 | 136 | 6.4 | 20.9 | 0.00 | 0.00 | 0.00 | 77 | 1010.2 |
| 20260505031025 | 15 | 193 | 9.7 | 20.9 | 0.00 | 0.00 | 0.00 | 77 | 1010.1 |
| 20260505030527 | 16 | 143 | 6.4 | 14.5 | 0.00 | 0.00 | 0.00 | 76 | 1010.1 |
| 20260505030040 | 16 | 199 | 8.0 | 16.1 | 0.00 | 0.00 | 0.00 | 75 | 1010.0 |
| 20260505025526 | 16 | 162 | 6.4 | 16.1 | 0.00 | 0.00 | 0.00 | 75 | 1010.0 |
| 20260505025022 | 16 | 158 | 9.7 | 24.1 | 0.00 | 0.00 | 0.00 | 74 | 1009.9 |
| 20260505024544 | 16 | 226 | 8.0 | 24.1 | 0.00 | 0.00 | 0.00 | 73 | 1009.9 |
| 20260505024024 | 17 | 174 | 9.7 | 20.9 | 0.00 | 0.00 | 0.00 | 72 | 1009.9 |
| 20260505023526 | 17 | 194 | 9.7 | 24.1 | 0.00 | 0.00 | 0.00 | 70 | 1009.8 |
| 20260505023044 | 17 | 227 | 8.0 | 24.1 | 0.00 | 0.00 | 0.00 | 69 | 1009.8 |
| 20260505022528 | 18 | 217 | 11.3 | 22.5 | 0.00 | 0.00 | 0.00 | 69 | 1009.7 |
| 20260505022024 | 18 | 160 | 11.3 | 22.5 | 0.00 | 0.00 | 0.00 | 69 | 1009.8 |
| 20260505021545 | 18 | 159 | 11.3 | 19.3 | 0.00 | 0.00 | 0.00 | 68 | 1009.7 |
| 20260505021025 | 19 | 206 | 11.3 | 22.5 | 0.00 | 0.00 | 0.00 | 66 | 1009.7 |
| 20260505020525 | 19 | 143 | 9.7 | 24.1 | 0.00 | 0.00 | 0.00 | 65 | 1009.6 |
| 20260505020040 | 20 | 208 | 11.3 | 24.1 | 0.00 | 0.00 | 0.00 | 64 | 1009.6 |
| 20260505015525 | 20 | 232 | 11.3 | 22.5 | 0.00 | 0.00 | 0.00 | 64 | 1009.6 |
| 20260505015028 | 20 | 191 | 11.3 | 24.1 | 0.00 | 0.00 | 0.00 | 62 | 1009.6 |
| 20260505014543 | 20 | 197 | 12.9 | 24.1 | 0.00 | 0.00 | 0.00 | 62 | 1009.5 |
| 20260505014026 | 20 | 188 | 11.3 | 22.5 | 0.00 | 0.00 | 0.00 | 62 | 1009.5 |
| 20260505013529 | 20 | 214 | 12.9 | 22.5 | 0.00 | 0.00 | 0.00 | 61 | 1009.5 |
| 20260505013037 | 21 | 226 | 11.3 | 20.9 | 0.00 | 0.00 | 0.00 | 61 | 1009.5 |
| 20260505012526 | 21 | 210 | 11.3 | 20.9 | 0.00 | 0.00 | 0.00 | 59 | 1009.4 |
| 20260505012026 | 21 | 212 | 11.3 | 19.3 | 0.00 | 0.00 | 0.00 | 59 | 1009.4 |
| 20260505011536 | 21 | 143 | 11.3 | 19.3 | 0.00 | 0.00 | 0.00 | 60 | 1009.6 |
| 20260505011024 | 21 | 196 | 12.9 | 22.5 | 0.00 | 0.00 | 0.00 | 61 | 1009.5 |
| 20260505010523 | 21 | 178 | 11.3 | 24.1 | 0.00 | 0.00 | 0.00 | 58 | 1009.5 |
| 20260505010045 | 22 | 207 | 11.3 | 24.1 | 0.00 | 0.00 | 0.00 | 59 | 1009.5 |
| 20260505005525 | 22 | 189 | 8.0 | 19.3 | 0.00 | 0.00 | 0.00 | 57 | 1009.5 |
| 20260505005025 | 22 | 207 | 11.3 | 20.9 | 0.00 | 0.00 | 0.00 | 58 | 1009.5 |
| 20260505004540 | 22 | 204 | 8.0 | 22.5 | 0.00 | 0.00 | 0.00 | 56 | 1009.4 |
| 20260505004024 | 22 | 205 | 11.3 | 22.5 | 0.00 | 0.00 | 0.00 | 57 | 1009.5 |
| 20260505003527 | 22 | 206 | 9.7 | 22.5 | 0.00 | 0.00 | 0.00 | 57 | 1009.5 |
| 20260505003039 | 22 | 203 | 11.3 | 22.5 | 0.00 | 0.00 | 0.00 | 55 | 1009.3 |
| 20260505002527 | 23 | 165 | 9.7 | 19.3 | 0.00 | 0.00 | 0.00 | 55 | 1009.4 |
| 20260505002024 | 23 | 192 | 9.7 | 22.5 | 0.00 | 0.00 | 0.00 | 55 | 1009.4 |
| 20260505001547 | 23 | 189 | 12.9 | 22.5 | 0.00 | 0.00 | 0.00 | 54 | 1009.3 |
| 20260505001023 | 23 | 204 | 9.7 | 22.5 | 0.00 | 0.00 | 0.00 | 55 | 1009.3 |
| 20260505000524 | 23 | 188 | 11.3 | 22.5 | 0.00 | 0.00 | 0.00 | 54 | 1009.3 |
| 20260505000041 | 23 | 172 | 9.7 | 20.9 | 0.00 | 0.00 | 0.00 | 55 | 1009.3 |
| 20260504235526 | 23 | 122 | 11.3 | 19.3 | 0.00 | 0.00 | 0.00 | 53 | 1009.3 |
| 20260504235025 | 23 | 205 | 8.0 | 19.3 | 0.00 | 0.00 | 0.00 | 54 | 1009.3 |
| 20260504234546 | 23 | 123 | 11.3 | 17.7 | 0.00 | 0.00 | 0.00 | 55 | 1009.3 |
| 20260504234024 | 23 | 149 | 9.7 | 19.3 | 0.00 | 0.00 | 0.00 | 54 | 1009.2 |
| 20260504233525 | 23 | 139 | 9.7 | 22.5 | 0.00 | 0.00 | 0.00 | 52 | 1009.1 |
| 20260504233036 | 23 | 205 | 11.3 | 22.5 | 0.00 | 0.00 | 0.00 | 55 | 1009.2 |
| 20260504232525 | 23 | 210 | 14.5 | 22.5 | 0.00 | 0.00 | 0.00 | 54 | 1009.2 |
| 20260504232024 | 23 | 205 | 11.3 | 22.5 | 0.00 | 0.00 | 0.00 | 53 | 1009.2 |
| 20260504231554 | 24 | 203 | 11.3 | 20.9 | 0.00 | 0.00 | 0.00 | 54 | 1009.3 |
| 20260504231027 | 24 | 221 | 9.7 | 20.9 | 0.00 | 0.00 | 0.00 | 50 | 1009.3 |
| 20260504230525 | 24 | 193 | 9.7 | 19.3 | 0.00 | 0.00 | 0.00 | 51 | 1009.3 |
| 20260504230038 | 24 | 176 | 12.9 | 22.5 | 0.00 | 0.00 | 0.00 | 53 | 1009.4 |
| 20260504225524 | 24 | 222 | 9.7 | 22.5 | 0.00 | 0.00 | 0.00 | 52 | 1009.5 |
| 20260504225023 | 24 | 169 | 9.7 | 20.9 | 0.00 | 0.00 | 0.00 | 52 | 1009.6 |
| 20260504224539 | 24 | 193 | 11.3 | 20.9 | 0.00 | 0.00 | 0.00 | 53 | 1009.5 |
| 20260504224027 | 24 | 202 | 8.0 | 22.5 | 0.00 | 0.00 | 0.00 | 51 | 1009.5 |
| 20260504223527 | 24 | 141 | 9.7 | 22.5 | 0.00 | 0.00 | 0.00 | 52 | 1009.6 |
| 20260504223035 | 24 | 218 | 11.3 | 22.5 | 0.00 | 0.00 | 0.00 | 52 | 1009.6 |
| 20260504222525 | 24 | 207 | 8.0 | 20.9 | 0.00 | 0.00 | 0.00 | 52 | 1009.7 |
| 20260504222024 | 23 | 207 | 9.7 | 20.9 | 0.00 | 0.00 | 0.00 | 52 | 1009.7 |
| 20260504221546 | 23 | 183 | 12.9 | 20.9 | 0.00 | 0.00 | 0.00 | 53 | 1009.7 |
| 20260504221024 | 23 | 186 | 11.3 | 19.3 | 0.00 | 0.00 | 0.00 | 53 | 1009.8 |
| 20260504220525 | 23 | 171 | 9.7 | 19.3 | 0.00 | 0.00 | 0.00 | 53 | 1009.7 |
| 20260504220039 | 23 | 207 | 9.7 | 17.7 | 0.00 | 0.00 | 0.00 | 53 | 1009.9 |
| 20260504215525 | 23 | 225 | 8.0 | 19.3 | 0.00 | 0.00 | 0.00 | 56 | 1009.8 |
| 20260504215028 | 23 | 198 | 11.3 | 19.3 | 0.00 | 0.00 | 0.00 | 56 | 1009.9 |
| 20260504214537 | 23 | 140 | 11.3 | 17.7 | 0.00 | 0.00 | 0.00 | 56 | 1009.9 |
| 20260504214028 | 23 | 200 | 9.7 | 20.9 | 0.00 | 0.00 | 0.00 | 57 | 1010.0 |
| 20260504213525 | 23 | 208 | 9.7 | 20.9 | 0.00 | 0.00 | 0.00 | 58 | 1010.0 |
| 20260504213035 | 23 | 217 | 11.3 | 22.5 | 0.00 | 0.00 | 0.00 | 56 | 1010.0 |
| 20260504212527 | 23 | 219 | 9.7 | 22.5 | 0.00 | 0.00 | 0.00 | 57 | 1010.1 |
| 20260504212024 | 23 | 148 | 9.7 | 19.3 | 0.00 | 0.00 | 0.00 | 57 | 1010.0 |
| 20260504211539 | 23 | 129 | 11.3 | 20.9 | 0.00 | 0.00 | 0.00 | 58 | 1010.2 |
| 20260504211024 | 22 | 178 | 9.7 | 20.9 | 0.00 | 0.00 | 0.00 | 60 | 1010.2 |
| 20260504210527 | 22 | 122 | 6.4 | 19.3 | 0.00 | 0.00 | 0.00 | 57 | 1010.2 |
| 20260504205526 | 22 | 200 | 11.3 | 19.3 | 0.00 | 0.00 | 0.00 | 58 | 1010.3 |
| 20260504205025 | 22 | 218 | 11.3 | 19.3 | 0.00 | 0.00 | 0.00 | 60 | 1010.3 |
| 20260504204546 | 22 | 148 | 9.7 | 19.3 | 0.00 | 0.00 | 0.00 | 59 | 1010.4 |
| 20260504204025 | 22 | 198 | 9.7 | 19.3 | 0.00 | 0.00 | 0.00 | 60 | 1010.4 |
| 20260504203525 | 22 | 204 | 9.7 | 17.7 | 0.00 | 0.00 | 0.00 | 60 | 1010.4 |
| 20260504203044 | 22 | 217 | 4.8 | 24.1 | 0.00 | 0.00 | 0.00 | 59 | 1010.4 |
| 20260504202525 | 22 | 203 | 9.7 | 24.1 | 0.00 | 0.00 | 0.00 | 60 | 1010.3 |
| 20260504202024 | 22 | 219 | 9.7 | 20.9 | 0.00 | 0.00 | 0.00 | 62 | 1010.3 |
| 20260504201540 | 22 | 155 | 9.7 | 17.7 | 0.00 | 0.00 | 0.00 | 61 | 1010.3 |
| 20260504201025 | 22 | 200 | 9.7 | 17.7 | 0.00 | 0.00 | 0.00 | 63 | 1010.3 |
| 20260504200525 | 21 | 168 | 9.7 | 17.7 | 0.00 | 0.00 | 0.00 | 60 | 1010.3 |
| 20260504200042 | 21 | 209 | 4.8 | 17.7 | 0.00 | 0.00 | 0.00 | 61 | 1010.4 |
| 20260504195525 | 21 | 207 | 8.0 | 20.9 | 0.00 | 0.00 | 0.00 | 64 | 1010.5 |
| 20260504195025 | 21 | 150 | 8.0 | 20.9 | 0.00 | 0.00 | 0.00 | 62 | 1010.4 |
| 20260504194559 | 21 | 199 | 11.3 | 22.5 | 0.00 | 0.00 | 0.00 | 65 | 1010.4 |
| 20260504194025 | 21 | 231 | 8.0 | 22.5 | 0.00 | 0.00 | 0.00 | 63 | 1010.5 |
| 20260504193525 | 21 | 134 | 8.0 | 17.7 | 0.00 | 0.00 | 0.00 | 62 | 1010.5 |
| 20260504193038 | 20 | 155 | 9.7 | 22.5 | 0.00 | 0.00 | 0.00 | 64 | 1010.5 |
| 20260504192525 | 20 | 203 | 8.0 | 22.5 | 0.00 | 0.00 | 0.00 | 64 | 1010.6 |
| 20260504192029 | 20 | 143 | 8.0 | 24.1 | 0.00 | 0.00 | 0.00 | 66 | 1010.6 |
| 20260504191546 | 20 | 215 | 4.8 | 24.1 | 0.00 | 0.00 | 0.00 | 64 | 1010.8 |
| 20260504191024 | 20 | 140 | 12.9 | 24.1 | 0.00 | 0.00 | 0.00 | 65 | 1010.7 |
| 20260504190525 | 20 | 167 | 9.7 | 19.3 | 0.00 | 0.00 | 0.00 | 66 | 1010.7 |
| 20260504190045 | 19 | 252 | 8.0 | 19.3 | 0.00 | 0.00 | 0.00 | 67 | 1010.7 |
| 20260504185528 | 19 | 237 | 8.0 | 17.7 | 0.00 | 0.00 | 0.00 | 68 | 1010.8 |
| 20260504185026 | 19 | 163 | 9.7 | 20.9 | 0.00 | 0.00 | 0.00 | 69 | 1010.8 |
| 20260504184539 | 18 | 168 | 8.0 | 22.5 | 0.00 | 0.00 | 0.00 | 69 | 1010.9 |
| 20260504184025 | 18 | 198 | 11.3 | 22.5 | 0.00 | 0.00 | 0.00 | 68 | 1010.9 |
| 20260504183528 | 18 | 214 | 8.0 | 17.7 | 0.00 | 0.00 | 0.00 | 70 | 1010.9 |
| 20260504183040 | 18 | 193 | 8.0 | 17.7 | 0.00 | 0.00 | 0.00 | 70 | 1011.0 |
| 20260504182524 | 18 | 174 | 8.0 | 16.1 | 0.00 | 0.00 | 0.00 | 70 | 1011.0 |
| 20260504182024 | 18 | 198 | 8.0 | 16.1 | 0.00 | 0.00 | 0.00 | 72 | 1010.9 |
| 20260504181545 | 17 | 146 | 9.7 | 16.1 | 0.00 | 0.00 | 0.00 | 73 | 1011.0 |
| 20260504181024 | 17 | 205 | 8.0 | 16.1 | 0.00 | 0.00 | 0.00 | 74 | 1010.9 |
| 20260504180525 | 17 | 225 | 6.4 | 12.9 | 0.00 | 0.00 | 0.00 | 74 | 1010.9 |
| 20260504180106 | 17 | 187 | 6.4 | 17.7 | 0.00 | 0.00 | 0.00 | 74 | 1011.0 |
| 20260504175525 | 17 | 209 | 8.0 | 17.7 | 0.00 | 0.00 | 0.00 | 75 | 1010.9 |
| 20260504175025 | 17 | 207 | 8.0 | 16.1 | 0.00 | 0.00 | 0.00 | 76 | 1010.9 |
| 20260504174536 | 17 | 207 | 8.0 | 16.1 | 0.00 | 0.00 | 0.00 | 75 | 1010.9 |
| 20260504174024 | 16 | 193 | 8.0 | 16.1 | 0.00 | 0.00 | 0.00 | 77 | 1010.9 |
| 20260504173524 | 16 | 207 | 6.4 | 17.7 | 0.00 | 0.00 | 0.00 | 76 | 1010.9 |
| 20260504173053 | 16 | 141 | 6.4 | 17.7 | 0.00 | 0.00 | 0.00 | 77 | 1010.9 |
| 20260504172521 | 16 | 211 | 9.7 | 17.7 | 0.00 | 0.00 | 0.00 | 77 | 1010.9 |
| 20260504172025 | 16 | 172 | 9.7 | 16.1 | 0.00 | 0.00 | 0.00 | 77 | 1010.9 |
| 20260504171540 | 16 | 143 | 4.8 | 14.5 | 0.00 | 0.00 | 0.00 | 79 | 1010.8 |
| 20260504171024 | 16 | 188 | 6.4 | 14.5 | 0.00 | 0.00 | 0.00 | 79 | 1010.9 |
| 20260504170524 | 16 | 212 | 6.4 | 14.5 | 0.00 | 0.00 | 0.00 | 81 | 1010.9 |
| 20260504151023 | 13 | 110 | 3.2 | 6.4 | 0.00 | 0.00 | 0.00 | 85 | 1010.3 |
| 20260504150524 | 12 | 134 | 1.6 | 6.4 | 0.00 | 0.00 | 0.00 | 86 | 1010.3 |
| 20260504141031 | 11 | 148 | 0.0 | 1.6 | 0.00 | 0.00 | 0.00 | 90 | 1010.1 |
| 20260504140524 | 11 | 148 | 0.0 | 1.6 | 0.00 | 0.00 | 0.00 | 91 | 1010.1 |
| 20260504130525 | 10 | 148 | 0.0 | 4.8 | 0.00 | 0.00 | 0.00 | 92 | 1009.6 |
| 20260504120107 | 10 | 0 | 0.0 | 1.6 | 0.00 | 0.00 | 0.00 | 91 | 1009.2 |
| 20260504110527 | 11 | 108 | 0.0 | 0.0 | 0.00 | 0.00 | 0.00 | 89 | 1009.1 |
| 20260504100525 | 11 | 0 | 0.0 | 0.0 | 0.00 | 0.00 | 0.00 | 88 | 1009.0 |
| 20260504081536 | 13 | 0 | 0.0 | 1.6 | 0.00 | 0.00 | 0.00 | 83 | 1008.9 |
| 20260504081028 | 13 | 108 | 0.0 | 1.6 | 0.00 | 0.00 | 0.00 | 83 | 1008.9 |
| 20260504080524 | 13 | 108 | 0.0 | 1.6 | 0.00 | 0.00 | 0.00 | 83 | 1008.9 |
| 20260504050525 | 17 | 0 | 0.0 | 0.0 | 0.00 | 0.00 | 0.00 | 73 | 1008.6 |
| 20260504050104 | 17 | 0 | 0.0 | 0.0 | 0.00 | 0.00 | 0.00 | 72 | 1008.6 |
| 20260504045524 | 17 | 0 | 0.0 | 0.0 | 0.00 | 0.00 | 0.00 | 72 | 1008.6 |
| 20260504045023 | 17 | 0 | 0.0 | 1.6 | 0.00 | 0.00 | 0.00 | 68 | 1008.5 |
| 20260504044536 | 17 | 0 | 0.0 | 3.2 | 0.00 | 0.00 | 0.00 | 67 | 1008.5 |
| 20260504044024 | 17 | 137 | 0.0 | 3.2 | 0.00 | 0.00 | 0.00 | 72 | 1008.6 |
| 20260504043529 | 18 | 137 | 1.6 | 3.2 | 0.00 | 0.00 | 0.00 | 69 | 1008.6 |
| 20260504043035 | 18 | 136 | 0.0 | 3.2 | 0.00 | 0.00 | 0.00 | 68 | 1008.5 |
| 20260504042524 | 18 | 134 | 1.6 | 3.2 | 0.00 | 0.00 | 0.00 | 69 | 1008.4 |
| 20260504042024 | 18 | 139 | 1.6 | 3.2 | 0.00 | 0.00 | 0.00 | 66 | 1008.3 |
| 20260504041541 | 18 | 0 | 1.6 | 3.2 | 0.00 | 0.00 | 0.00 | 71 | 1008.3 |
| 20260504041025 | 19 | 129 | 1.6 | 3.2 | 0.00 | 0.00 | 0.00 | 59 | 1008.3 |
| 20260504040525 | 19 | 125 | 1.6 | 3.2 | 0.00 | 0.00 | 0.00 | 68 | 1008.2 |